Overview Statistics Trail Chart Weather Telemetry Raw packets
 

This is the latest recevied weather packets stored in our database for station/object EA8BQU-10. If no packets are shown the sender has not sent any weather packets the latest 10 day(s).

<< 1 2 3 4 5 >>
Time Temp. Humidity Pressure Rain* Wind** Luminosity Snow
1788612223 24.44° C 100% 1019.5 hPa - - - -
1788611323 24.44° C 100% 1019.6 hPa - - - -
1788610423 25° C 100% 1019.9 hPa - - - -
1788609523 25° C 100% 1020.1 hPa - - - -
1788608623 23.89° C 100% 1019.6 hPa - - - -
1788607706 24.44° C 100% 1020.2 hPa - - - -
1788607042 24.44° C 100% 1020.7 hPa - - - -
1788606142 23.89° C 100% 1020.1 hPa - - - -
1788605239 23.89° C 100% 1020.2 hPa - - - -
1788604339 23.33° C 100% 1020.1 hPa - - - -
1788603439 23.33° C 100% 1020.5 hPa - - - -
1788602538 23.89° C 100% 1020.2 hPa - - - -
1788601638 23.33° C 100% 1019.8 hPa - - - -
1788600737 23.33° C 100% 1019.7 hPa - - - -
1788599856 23.33° C 100% 1019.9 hPa - - - -
1788598956 23.33° C 100% 1019.7 hPa - - - -
1788598076 23.33° C 100% 1019.8 hPa - - - -
1788597156 22.78° C 100% 1020 hPa - - - -
1788596536 22.78° C 100% 1020.2 hPa - - - -
1788596252 22.78° C 100% 1020.2 hPa - - - -
1788595347 22.78° C 100% 1019.5 hPa - - - -
1788594447 22.78° C 100% 1019.9 hPa - - - -
1788593546 22.78° C 100% 1019.8 hPa - - - -
1788592646 22.78° C 100% 1019.4 hPa - - - -
1788591746 22.78° C 100% 1019.1 hPa - - - -

* Rain since midnight (hover to see other rain measurements)
** Current wind speed in m/s (hover to see current wind gust speed)